Overview Statistics Trail Chart Weather Telemetry Raw packets
 

This is the latest recevied weather packets stored in our database for station/object K5IDL. If no packets are shown the sender has not sent any weather packets the latest 10 day(s).

<< 103 104 105 106 107 108 109 >>
Time Temp. Humidity Pressure Rain* Wind** Luminosity Snow
1787932240 36.11° C 50% 1019.7 hPa 0 mm - 467 W/m² -
1787931939 35° C 54% 1019.8 hPa 0 mm - 454 W/m² -
1787931638 35° C 54% 1019.6 hPa 0 mm - 441 W/m² -
1787931338 33.89° C 56% 1019.6 hPa 0 mm - 428 W/m² -
1787931033 33.89° C 55% 1019.7 hPa 0 mm - 414 W/m² -
1787930732 33.33° C 58% 1019.5 hPa 0 mm - 398 W/m² -
1787930427 33.33° C 58% 1019.6 hPa 0 mm - 386 W/m² -
1787930122 34.44° C 56% 1019.5 hPa 0 mm - 371 W/m² -
1787929821 33.33° C 57% 1019.5 hPa 0 mm - 356 W/m² -
1787929516 34.44° C 55% 1019.3 hPa 0 mm - 340 W/m² -
1787929215 33.89° C 56% 1019.3 hPa 0 mm - 325 W/m² -
1787928909 33.33° C 55% 1019.3 hPa 0 mm - 313 W/m² -
1787928609 33.89° C 54% 1019.1 hPa 0 mm - 300 W/m² -
1787928307 35° C 54% 1019.4 hPa 0 mm - 284 W/m² -
1787928006 33.89° C 55% 1019.4 hPa 0 mm - 272 W/m² -
1787927706 33.33° C 58% 1019.4 hPa 0 mm - 259 W/m² -
1787927406 33.33° C 58% 1019.4 hPa 0 mm - 243 W/m² -
1787927102 36.11° C 53% 1019.2 hPa 0 mm - 229 W/m² -
1787926796 33.89° C 56% 1019.1 hPa 0 mm - 217 W/m² -
1787926496 32.78° C 59% 1019.2 hPa 0 mm - 204 W/m² -
1787926195 32.22° C 57% 1019.4 hPa 0 mm - 190 W/m² -
1787925895 31.67° C 61% 1019.3 hPa 0 mm - 177 W/m² -
1787925594 32.78° C 59% 1019.3 hPa 0 mm - 164 W/m² -
1787925290 31.11° C 63% 1019.3 hPa 0 mm - 152 W/m² -
1787924988 30.56° C 62% 1019.3 hPa 0 mm - 141 W/m² -

* Rain latest hour (hover to see other rain measurements)
** Current wind speed in m/s (hover to see current wind gust speed)